sat.trackr.live / text

‹ back to catalog

STARLINK-30941

NORAD 58475 · 2023-186C

PAYLOAD ACTIVE UNKNOWN

§ Identity

Operator
Country
US
Launch date
2023-12-03
Launch site
AFETR
Launch vehicle
Mass (kg)
RCS (m²)

Purposes: comms

External: N2YO · Heavens-Above · Gunter

§ Orbital elements

Epoch: 2026-05-24T23:48:15.800256Z

Period
94.27 min
Inclination
43.0039°
Eccentricity
0.0001791
Mean motion
15.27575506 rev/d
Perigee alt
481.8 km
Apogee alt
484.3 km
Semi-major
6,861.2 km
B*
1.1930e-4
RAAN
356.3166°
Arg perigee
266.0088°
Mean anomaly
94.0559°
Rev number
13,752

§ Raw data

STARLINK-309411 58475U 23186C   26144.99184954  .00003021  00000+0  11930-3 0  99972 58475  43.0039 356.3166 0001791 266.0088  94.0559 15.27575506137521

JSON: /api/v1/satellites/58475 · /tle

For live sub-satellite position, see the globe view (requires WebGL).

§ Visibility from observer

Set your observer location to see the next 7 days of passes ≥ 10°. The values pass through the URL so the page stays shareable.

No JS? Fill the form by hand. The geolocation button needs JavaScript.